SCP
0 0 0 0 0 0 0 0 0 0 0 0 0 0 0 0 0 0 0 0 0 0 0 0 0 0 0 1 1 1 0 0 0 0 0 0 0 1 1 0 1 1 1 1 1 1 1 1 1
0 0 0 0 0 0 0 0 0 0 0 0 0 0 0 0 0 0 0 0 0 0 0 0 0 1 1 1 1 1 0 0 0 0 0 0 0 0 0 0 0 1 1 1 1 1 1 1 1
0 0 0 0 0 0 0 0 0 0 0 0 0 0 0 0 0 0 0 1 1 0 0 0 1 1 1 1 1 1 0 0 0 0 0 0 0 0 0 0 0 0 1 1 1 1 1 1 1
0 0 0 0 0 0 0 0 0 0 0 0 0 0 0 0 0 0 1 1 1 1 0 0 1 1 1 1 1 1 0 0 0 0 0 0 0 0 0 0 0 1 1 1 1 1 0 0 0
0 0 0 0 0 0 0 0 0 0 0 0 0 0 0 0 0 0 1 1 1 1 1 1 1 1 1 1 1 0 0 0 0 0 0 0 0 0 0 0 0 1 1 1 1 1 1 0 0
0 0 0 0 0 0 0 0 0 0 0 0 0 0 0 0 0 1 1 1 1 1 1 1 1 1 1 0 0 0 0 0 0 0 0 0 0 0 0 0 0 0 0 1 1 1 1 1 1
0 0 0 0 0 0 0 0 0 0 0 0 0 0 0 0 1 1 1 1 1 1 1 1 1 1 0 0 1 1 1 1 1 1 1 0 0 0 0 0 0 0 0 0 1 1 1 1 1
0 0 0 0 0 0 0 0 0 0 0 0 0 0 0 1 1 1 1 1 1 1 1 1 1 1 0 0 1 1 1 1 1 1 1 1 0 0 0 0 0 0 0 0 0 1 1 1 1
0 0 0 0 0 0 0 0 0 0 0 0 0 0 1 1 1 2 1 1 1 1 1 1 1 1 0 0 0 1 1 0 0 0 1 1 0 0 0 0 0 0 0 0 0 0 0 1 1
0 0 0 0 0 0 0 0 0 0 0 0 1 1 1 1 1 1 1 1 1 1 1 1 1 0 0 0 0 0 0 0 0 0 0 0 0 0 0 0 0 0 0 0 0 0 0 0 0
0 0 0 0 0 0 0 0 0 0 0 0 0 1 1 1 1 1 1 1 1 1 1 1 1 0 0 0 0 0 0 0 0 0 0 0 0 0 0 0 0 0 0 0 0 0 0 0 0
0 0 0 0 0 0 0 0 0 0 0 0 0 0 1 1 1 1 1 1 1 1 1 1 1 0 0 0 0 0 0 0 0 0 0 0 0 0 0 0 0 0 0 0 0 0 0 0 0
0 0 0 0 0 0 0 0 0 0 1 1 1 0 0 1 0 0 0 0 0 0 1 1 1 0 0 0 0 0 0 0 0 0 0 0 0 0 0 0 0 0 0 0 0 0 0 0 0
0 0 0 0 0 0 0 0 0 0 1 1 1 0 0 0 0 0 0 0 0 0 0 1 1 0 0 0 0 0 0 0 0 0 0 0 0 0 0 0 0 0 0 0 0 0 0 0 0
0 0 0 0 0 0 0 0 0 0 1 1 1 0 0 0 0 0 0 0 0 0 0 0 0 0 0 0 0 0 0 0 0 0 0 0 0 0 0 0 0 0 0 0 0 0 0 0 0
0 0 0 0 0 0 0 0 0 0 1 1 1 0 0 0 0 0 1 1 0 0 0 0 0 0 0 0 0 0 0 0 0 0 0 0 0 0 0 0 0 0 0 0 0 0 0 0 0
0 0 0 0 0 0 0 0 0 0 0 1 1 1 0 0 0 1 1 1 1 0 0 0 0 0 0 0 0 0 0 0 0 0 0 0 0 0 0 0 0 0 0 0 0 0 0 0 0
0 0 0 0 0 0 0 0 0 0 0 0 0 0 1 1 1 1 1 1 1 0 0 0 0 0 0 0 0 0 0 0 0 0 0 0 0 0 0 0 0 0 0 0 0 0 0 0 0
0 0 0 0 0 0 0 0 0 0 0 0 0 1 1 1 1 1 1 1 1 1 1 0 0 0 0 0 0 0 0 0 0 0 0 0 0 0 0 0 0 0 0 0 0 0 0 0 0
0 0 0 0 0 0 0 0 0 0 0 0 0 1 0 0 0 1 1 1 1 1 1 1 0 0 0 0 0 0 0 0 0 0 0 0 0 0 0 0 0 0 0 0 0 0 0 0 0
0 0 0 0 0 0 0 0 0 0 0 0 0 0 0 0 0 1 1 1 1 1 1 1 0 0 0 0 0 0 0 0 0 0 0 0 0 0 0 0 0 0 0 0 0 0 0 0 0
0 0 0 0 0 0 0 0 0 0 0 0 0 0 0 0 0 0 1 1 1 1 1 1 0 0 0 0 0 0 0 0 0 0 0 0 0 0 0 0 0 0 0 0 0 0 0 0 0
0 0 0 0 0 0 0 0 0 0 0 0 0 0 0 0 0 0 1 1 1 1 1 1 1 1 1 1 1 0 0 0 0 0 0 0 0 0 0 0 0 0 0 0 0 0 0 0 0
0 0 0 0 0 0 0 0 0 0 0 0 0 0 0 0 0 0 0 1 1 1 1 1 1 1 1 1 1 1 0 0 0 0 0 0 0 0 0 0 0 0 0 0 0 0 0 0 0
0 0 0 0 0 0 0 0 0 0 0 0 0 0 0 0 0 0 0 1 1 1 1 1 1 1 1 1 1 1 1 0 0 0 0 0 0 0 0 0 0 0 0 0 0 0 0 0 0
0 0 0 0 0 0 0 0 0 0 0 0 0 0 0 0 0 0 0 0 1 1 1 1 1 1 0 1 1 1 1 1 0 0 0 0 0 0 0 0 0 0 0 0 0 0 0 0 0
0 0 0 0 0 0 0 0 0 0 0 0 0 0 0 0 0 0 0 1 1 1 1 1 1 1 1 0 1 1 1 1 1 1 1 0 0 0 0 0 0 0 0 0 0 0 0 0 0
0 0 0 0 0 0 0 0 0 0 0 0 0 0 0 0 0 0 1 1 1 1 1 1 1 1 1 1 0 1 1 1 1 1 1 1 0 0 0 0 0 0 0 0 0 0 0 0 0
0 0 0 0 0 0 0 0 0 0 0 0 0 0 0 0 0 0 1 1 1 1 1 1 1 1 1 0 0 0 0 0 0 0 0 0 0 0 0 0 0 0 0 0 0 0 0 0 0
0 0 0 0 0 0 0 0 0 0 0 0 0 0 0 0 0 0 0 0 1 1 0 0 0 0 0 0 0 0 0 0 0 0 0 0 0 0 0 0 0 0 0 0 0 0 0 0 0
Wind_Speed
1 1 3 3 5 6 4 2 1 2 4 4 7 9 8 6 4 4 2 5 6 4 2 5 8 9 10 10 10 11 11 11 11 11 12 12 11 11 11 11 11 11 10 10 10 10 10 10 10
0 1 3 4 5 4 2 1 3 3 5 5 7 8 7 6 4 5 2 5 6 5 3 5 8 9 10 10 10 10 11 10 10 11 11 11 11 11 11 11 11 11 10 10 10 10 10 10 10
1 1 3 4 4 3 3 1 4 4 3 4 5 6 5 4 3 3 5 7 6 4 3 4 9 9 9 9 9 9 10 10 10 10 10 11 11 11 11 11 11 10 10 10 10 9 9 10 10
2 4 4 5 5 2 4 3 4 5 5 5 6 6 4 2 3 5 7 8 6 4 3 4 8 9 9 9 9 9 9 10 10 10 10 10 10 11 11 10 10 10 10 10 9 9 9 9 9
3 4 5 4 3 2 3 4 5 5 4 5 7 6 3 3 5 7 7 8 7 4 2 4 7 8 8 8 8 8 9 9 9 9 9 9 10 10 10 10 10 9 9 9 9 9 9 8 9
4 4 4 3 2 2 2 3 6 7 7 6 6 6 2 1 5 5 6 7 7 6 3 3 6 7 7 7 7 7 7 8 8 8 8 8 9 9 9 9 9 9 9 9 8 9 9 8 8
4 4 3 3 2 2 2 3 6 6 5 4 5 5 2 1 3 5 6 6 5 5 4 2 2 3 5 6 6 5 6 6 6 6 6 6 7 7 7 8 8 8 8 8 8 8 8 8 8
5 5 3 2 3 1 2 4 5 7 4 4 5 6 4 4 4 5 5 5 4 4 3 2 1 1 1 2 4 4 4 4 4 4 4 5 5 5 6 6 7 7 7 7 7 8 8 8 8
5 5 2 2 3 2 3 5 3 5 6 4 3 4 5 6 5 6 5 4 3 3 2 2 2 1 1 1 2 2 2 2 2 2 3 3 2 2 3 4 6 6 6 6 7 8 8 8 8
5 4 2 2 4 4 3 5 4 5 6 4 4 4 6 6 6 6 5 4 3 3 3 2 2 2 1 1 1 1 1 1 1 1 2 1 1 1 2 3 5 5 6 6 7 8 8 7 4
4 4 2 3 4 5 4 3 3 6 4 4 7 7 6 6 5 5 4 4 4 3 3 3 3 2 2 1 1 1 1 1 2 2 1 1 2 2 2 2 3 4 5 4 5 5 4 4 3
4 2 3 3 3 4 4 3 3 4 5 6 9 9 8 7 5 5 4 4 3 3 3 3 3 3 2 2 2 2 1 2 2 2 2 2 2 2 2 1 2 2 2 3 3 3 3 4 4
3 2 2 3 4 5 5 4 4 3 4 6 8 8 8 7 5 4 4 4 3 3 3 3 4 4 3 2 2 2 2 2 2 2 2 3 2 1 1 1 1 2 2 2 3 3 3 4 4
3 3 3 3 4 3 5 2 3 3 6 8 9 7 7 7 6 5 4 3 3 3 3 3 4 4 4 3 2 2 2 2 2 2 2 3 2 2 1 1 1 2 2 2 3 3 3 3 3
3 3 1 2 3 3 5 1 3 5 7 8 8 7 7 6 6 6 6 5 4 3 3 4 4 4 4 3 2 2 2 2 2 2 3 3 3 2 2 2 2 1 2 3 3 3 3 3 3
2 2 1 4 4 4 6 3 6 5 8 7 7 6 6 5 5 5 6 5 5 4 4 4 5 5 4 3 3 2 2 3 2 2 2 3 3 3 3 3 2 1 2 2 3 2 3 3 2
1 2 4 4 4 4 5 5 6 5 8 7 6 6 6 5 5 5 6 6 5 5 5 4 4 5 4 4 3 3 2 2 2 2 2 2 3 3 3 2 2 2 2 2 2 2 2 2 2
4 3 3 4 3 4 4 5 5 5 8 8 7 7 6 7 7 7 7 6 5 5 5 5 5 5 4 3 3 3 3 2 2 2 2 2 2 3 3 2 2 2 2 2 2 2 2 1 1
4 3 3 4 3 4 5 5 6 6 6 7 7 7 7 8 7 6 7 6 5 5 5 5 5 4 4 3 2 2 1 1 2 2 2 2 2 2 2 2 2 2 2 2 2 1 2 2 1
2 2 2 2 2 3 3 4 5 5 8 9 10 9 9 6 5 5 6 6 6 6 6 5 5 4 4 3 2 2 2 1 1 1 2 2 2 2 2 2 2 2 2 2 2 1 1 1 1
1 4 4 3 1 1 2 3 4 4 4 5 7 8 8 10 9 7 7 7 7 7 7 7 6 5 4 3 3 3 2 2 2 2 2 2 2 1 2 2 2 1 2 1 1 1 2 1 1
3 4 3 2 2 2 2 3 6 4 4 5 7 7 8 8 8 8 8 8 8 8 7 7 6 6 5 5 4 5 3 2 1 1 0 1 2 2 1 1 1 1 1 1 0 1 1 2 0
4 3 1 2 2 1 1 2 6 2 5 7 7 8 8 8 9 9 10 10 9 8 8 7 6 5 4 4 5 5 3 2 1 0 1 1 2 2 1 1 1 1 1 1 1 1 1 1 1
2 3 4 4 4 2 5 4 6 5 8 7 7 6 8 8 8 8 7 7 6 6 6 6 6 5 4 5 5 5 5 3 2 1 0 1 1 1 1 1 1 1 1 1 0 1 1 1 1
4 5 4 4 3 5 3 3 7 6 7 8 8 7 7 7 8 7 7 7 7 7 6 6 6 5 4 5 5 5 5 5 4 3 2 1 0 1 1 1 0 0 1 1 1 1 0 1 1
3 7 6 4 4 4 2 3 5 4 3 5 6 6 6 6 7 7 8 8 8 7 7 7 6 5 5 5 4 4 4 3 3 3 2 2 2 2 1 0 0 0 1 1 1 1 0 1 1
4 3 6 6 1 2 3 3 4 1 1 3 3 4 5 7 7 7 7 7 7 7 7 7 7 5 5 4 4 3 3 3 3 2 2 2 2 2 1 1 0 0 0 1 1 1 0 1 1
4 5 5 4 2 2 3 3 4 4 3 4 5 5 5 5 6 6 6 7 6 6 5 5 6 6 5 4 4 4 3 3 3 2 2 2 2 1 1 1 0 0 0 0 1 0 0 1 0
2 2 4 4 4 4 2 6 6 7 6 6 6 6 5 5 6 6 6 6 5 5 5 5 5 5 4 4 3 3 3 3 2 2 1 1 1 1 1 1 1 1 0 0 1 1 1 1 0
4 5 6 4 3 4 3 7 5 4 4 5 6 5 4 4 5 6 6 5 5 5 4 4 4 4 4 4 4 3 3 3 2 1 1 1 1 1 1 1 1 1 1 1 1 1 1 2 1
Wind_Direction
223 97 84 58 53 55 61 36 103 77 58 51 70 80 80 66 83 124 207 137 133 127 104 91 89 86 85 84 82 80 79 80 80 79 77 75 75 75 76 77 75 74 72 70 68 66 67 67 65
128 116 71 57 76 78 52 31 85 95 132 114 79 78 76 72 86 112 121 137 131 123 118 108 100 94 92 89 87 84 83 83 84 81 79 78 76 76 76 75 75 73 72 70 68 67 68 67 65
204 121 81 65 78 120 141 167 119 101 100 89 76 58 70 94 106 128 153 142 124 115 111 112 106 102 98 94 92 91 89 88 87 86 83 80 78 77 78 76 74 73 72 70 68 68 70 67 64
75 48 55 72 82 118 151 169 133 104 64 60 89 68 57 61 123 135 145 136 126 123 121 123 115 111 105 101 98 96 95 92 89 87 85 82 79 80 80 77 76 74 73 72 68 67 68 66 65
74 71 62 68 75 91 123 133 124 102 86 78 89 91 66 31 96 123 138 137 133 137 136 130 121 117 114 110 107 104 101 97 93 91 91 86 82 81 80 78 75 74 71 69 66 64 65 65 63
61 66 77 81 79 69 81 104 99 96 105 99 94 103 104 92 108 133 136 136 140 142 139 132 133 127 123 118 112 108 107 101 95 92 93 89 85 82 80 78 75 74 70 66 63 59 59 60 61
101 85 103 119 93 64 112 113 102 108 104 113 117 105 137 172 158 152 138 133 135 138 132 130 140 137 134 126 119 111 107 103 98 93 93 95 90 86 86 83 77 74 69 65 62 59 56 55 58
122 95 76 87 102 84 81 89 107 112 112 117 110 126 166 206 172 135 127 125 123 131 139 143 133 119 118 121 124 119 108 98 90 88 87 86 82 81 82 82 78 74 68 63 59 56 54 53 57
85 81 102 160 144 136 106 93 68 85 95 76 82 137 164 158 129 108 106 107 118 132 152 159 168 165 166 172 137 118 102 87 76 67 75 68 40 48 67 73 74 68 62 55 53 53 52 53 56
85 110 173 173 147 133 102 99 104 83 80 72 68 81 116 127 121 117 123 130 141 153 170 162 170 169 177 162 88 56 47 42 47 54 62 60 52 56 73 57 57 54 57 50 54 57 58 54 49
115 147 146 106 128 124 108 93 90 115 103 147 147 142 135 123 120 124 137 142 151 151 150 162 159 141 132 93 81 54 50 47 44 52 73 76 65 54 48 36 30 32 45 41 50 53 46 50 57
109 140 144 138 124 116 120 120 100 132 177 171 155 150 139 134 138 146 147 142 133 126 137 129 124 119 116 109 92 76 66 55 49 44 62 82 76 61 47 33 24 26 33 42 48 56 49 53 62
115 146 143 138 115 119 113 121 137 149 162 144 138 138 143 148 156 162 157 142 126 119 118 114 118 117 117 108 87 77 68 65 61 53 56 76 87 80 63 33 35 37 51 62 63 64 64 63 64
161 143 154 152 133 135 126 140 126 175 154 145 146 152 155 157 159 147 144 136 130 123 126 120 113 120 116 103 96 89 81 79 67 58 57 78 90 89 81 57 49 47 62 73 76 81 77 67 65
120 99 58 211 168 170 123 69 203 183 155 152 157 161 162 166 160 155 164 158 153 145 126 118 123 117 117 114 102 90 84 81 68 58 52 65 81 84 80 66 50 44 65 75 74 73 71 72 65
87 96 219 251 185 180 133 210 241 183 156 164 168 166 165 173 174 170 166 160 154 143 130 123 117 110 113 108 98 85 76 78 69 61 53 60 71 80 81 77 57 52 69 73 80 74 72 64 60
71 183 222 253 204 166 153 211 239 180 162 174 179 176 172 176 178 174 171 164 158 152 141 124 113 108 109 101 93 85 73 64 58 57 50 53 63 72 84 78 58 61 72 72 89 70 86 83 69
209 203 213 223 222 165 179 218 232 192 173 180 182 184 178 181 188 180 177 166 153 144 135 129 121 116 111 98 84 69 57 45 45 53 49 56 62 76 85 77 63 65 69 58 67 82 63 82 97
193 187 216 236 227 165 197 219 228 202 179 185 191 193 192 197 198 178 172 163 147 136 137 138 129 131 121 106 100 93 70 37 40 42 47 53 55 68 85 79 69 61 70 69 74 91 70 41 61
210 196 231 276 243 166 193 235 236 205 199 195 193 195 195 193 186 176 167 163 157 154 153 147 147 149 144 143 143 138 131 100 59 21 33 37 49 52 78 92 85 76 72 57 47 64 87 23 49
215 185 201 218 318 22 116 309 273 253 223 209 199 196 192 187 184 179 172 170 164 164 165 164 167 159 154 141 114 91 62 41 29 13 9 10 52 59 72 99 97 93 95 94 60 82 114 131 354
237 236 205 202 137 264 169 254 272 241 231 217 209 198 196 191 181 180 176 174 174 177 174 170 167 161 160 148 137 139 137 150 205 225 315 349 29 47 60 78 90 95 95 111 113 92 117 126 42
212 219 205 209 171 285 263 183 276 240 227 229 214 202 196 191 182 182 184 182 179 174 172 172 164 164 165 156 153 150 146 162 167 102 36 9 359 17 51 71 74 78 98 116 88 75 88 120 149
166 41 27 44 72 284 235 178 263 226 217 212 210 203 191 185 182 182 180 172 172 169 168 166 164 172 172 162 159 160 158 155 142 134 106 345 338 346 18 65 72 81 97 97 68 102 125 127 111
85 83 32 359 359 257 244 173 246 243 220 194 191 196 191 180 177 178 173 170 173 171 171 167 168 176 175 167 169 173 171 165 172 181 183 193 250 307 310 28 73 95 134 126 109 100 78 131 134
167 141 154 195 231 278 326 223 258 259 202 181 177 177 177 174 176 180 181 177 179 179 173 168 170 175 173 168 172 174 171 169 185 191 182 190 203 221 233 219 160 161 157 138 122 108 125 106 162
151 168 172 151 223 275 288 293 309 2 117 155 162 166 185 182 177 179 177 176 176 175 175 173 170 170 174 175 165 162 167 169 178 187 183 189 207 215 200 189 143 102 129 154 141 135 210 122 150
159 156 102 119 173 264 289 264 240 235 208 191 186 185 194 188 179 178 176 178 177 174 170 164 162 166 170 166 167 161 165 165 167 162 182 202 218 207 169 173 169 83 115 129 139 143 33 98 345
154 137 127 132 160 166 244 269 236 210 206 194 198 194 184 182 185 180 181 179 168 157 154 153 159 156 155 158 155 145 153 153 147 149 176 203 222 200 179 187 184 195 224 148 134 166 151 162 270
172 175 152 157 217 182 187 263 278 206 205 188 193 197 183 181 180 176 173 164 158 160 160 160 165 164 168 162 151 152 150 140 138 155 184 187 191 207 195 169 169 208 235 204 190 214 194 190 219